Weather History for State College, PA

Change the Weather History Date:

Friday, May 16, 2014

  Actual Average Record
Temperature  
Mean Temperature 51 °F -  
Max Temperature 55 °F 69 °F 92 °F (1962)
Min Temperature 46 °F 48 °F 34 °F (1956)
Degree Days  
Heating Degree Days 14    
Growing Degree Days 1 (Base 50)    
Moisture  
Dew Point 46 °F    
Average Humidity 83    
Maximum Humidity 100    
Minimum Humidity 58    
Precipitation  
Precipitation 0.94 in - - ()
Sea Level Pressure  
Sea Level Pressure 29.91 in    
Wind  
Wind Speed 6 mph (West)    
Max Wind Speed 13 mph    
Max Gust Speed 17 mph    
Visibility 7 miles    
Events Rain    
Averages and records for this station are not official NWS values.
T = Trace of Precipitation, MM = Missing Value Source: NWS Daily Summary

Daily Weather History Graph

Daily Weather History Graph

Search for Another Location

Airport:

Trip Planner

Search our weather history database for the weather conditions in past years. The results will help you decide how hot, cold, wet, or windy it might be!

Date:

Astronomy

May. 16, 2014 Rise Set
Actual Time 5:53 AM EDT 8:23 PM EDT
Civil Twilight 5:21 AM EDT 8:54 PM EDT
Nautical Twilight 4:42 AM EDT 9:33 PM EDT
Astronomical Twilight 3:59 AM EDT 10:17 PM EDT
Moon 10:28 PM EDT (5/16) 7:32 AM EDT (5/16)
Length of Visible Light 15h 32m
Length of Day
14h 30m
Waning Gibbous, 95% of the Moon is Illuminated
May 16
Waning Gibbous
May 21
Last Quarter
May 28
New
Jun 5
First Quarter
Jun 13
Full

Hourly Weather History & Observations

Time (EDT) Temp. Dew Point Humidity Pressure Visibility Wind Dir Wind Speed Gust Speed Precip Events Conditions
12:15 AM 55.9 °F 54.1 °F 94% 29.93 in 5.0 mi West 12.7 mph 17.3 mph 0.18 in Rain Heavy Rain
12:35 AM 55.4 °F 53.8 °F 94% 29.92 in 5.0 mi WSW 4.6 mph - 0.27 in Rain Heavy Rain
12:55 AM 54.7 °F 53.6 °F 96% 29.91 in 4.0 mi Calm Calm - 0.01 in Rain Rain
1:15 AM 54.5 °F 52.9 °F 94% 29.92 in 7.0 mi West 4.6 mph - 0.04 in Rain Light Rain
1:35 AM 54.5 °F 52.5 °F 93% 29.91 in 7.0 mi WSW 6.9 mph - 0.06 in Rain Rain
1:55 AM 54.1 °F 52.3 °F 94% 29.89 in 7.0 mi West 3.5 mph - 0.01 in Rain Rain
2:15 AM 54.1 °F 52.2 °F 93% 29.89 in 5.0 mi Calm Calm - 0.09 in Rain Rain
2:35 AM 53.4 °F 50.9 °F 91% 29.88 in 4.0 mi West 3.5 mph - 0.19 in Rain Rain
2:55 AM 52.9 °F 50.9 °F 93% 29.88 in 7.0 mi Calm Calm - 0.01 in Rain Rain
3:15 AM 52.2 °F 50.7 °F 95% 29.87 in 4.0 mi NW 3.5 mph - 0.13 in Rain Heavy Rain
3:35 AM 51.8 °F 50.0 °F 94% 29.87 in 5.0 mi Calm Calm - 0.22 in Rain Heavy Rain
3:55 AM 51.3 °F 50.0 °F 95% 29.88 in 3.0 mi Calm Calm - 0.01 in Rain Rain
4:15 AM 51.1 °F 49.8 °F 95% 29.88 in 5.0 mi SW 4.6 mph - 0.08 in Rain Heavy Rain
4:35 AM 50.9 °F 49.5 °F 95% 29.86 in 4.0 mi Calm Calm - 0.21 in Rain Heavy Rain
4:55 AM 50.9 °F 49.5 °F 95% 29.86 in 4.0 mi Calm Calm - 0.01 in Rain Heavy Rain
5:15 AM 50.4 °F 50.0 °F 99% 29.87 in 3.0 mi Calm Calm - 0.12 in Rain Heavy Rain
5:35 AM 50.4 °F 50.0 °F 99% 29.87 in 3.0 mi Calm Calm - 0.25 in Rain Heavy Rain
5:53 AM 50.0 °F 50.0 °F 100% 29.87 in 4.0 mi Calm Calm - N/A Rain Rain
6:53 AM 50.0 °F 50.0 °F 100% 29.88 in 6.0 mi West 8.1 mph - N/A Rain Light Rain
7:53 AM 50.0 °F 48.2 °F 94% 29.89 in 10.0 mi West 5.8 mph - N/A   Overcast
8:53 AM 51.8 °F 48.2 °F 88% 29.88 in 10.0 mi West 6.9 mph - N/A   Overcast
9:53 AM 51.8 °F 48.2 °F 88% 29.90 in 10.0 mi West 8.1 mph - N/A   Overcast
10:53 AM 51.8 °F 46.4 °F 82% 29.91 in 10.0 mi WNW 11.5 mph - N/A   Mostly Cloudy
11:53 AM 53.6 °F 46.4 °F 77% 29.92 in 10.0 mi WNW 11.5 mph - N/A   Overcast
12:53 PM 55.4 °F 44.6 °F 67% 29.90 in 10.0 mi WNW 6.9 mph - N/A   Overcast
1:53 PM 55.4 °F 44.6 °F 67% 29.89 in 10.0 mi WSW 11.5 mph - N/A   Overcast
2:55 PM 55.4 °F 44.6 °F 67% 29.89 in 10.0 mi WSW 11.5 mph - N/A   Overcast
5:53 PM 55.4 °F 41.0 °F 58% 29.89 in 10.0 mi WNW 6.9 mph - N/A   Overcast
6:53 PM 53.6 °F 41.0 °F 62% 29.92 in 10.0 mi West 11.5 mph - N/A   Overcast
7:53 PM 53.6 °F 39.2 °F 58% 29.93 in 10.0 mi WNW 10.4 mph 16.1 mph N/A   Overcast
8:53 PM 51.8 °F 39.2 °F 62% 29.96 in 10.0 mi WNW 8.1 mph - N/A   Overcast
9:55 PM 50.4 °F 38.7 °F 64% 29.98 in 10.0 mi West 6.9 mph - N/A   Overcast
10:15 PM 49.6 °F 38.3 °F 65% 29.98 in 10.0 mi West 8.1 mph - N/A   Overcast
10:35 PM 48.6 °F 37.8 °F 66% 29.98 in 10.0 mi West 8.1 mph - N/A   Mostly Cloudy
10:55 PM 47.8 °F 37.6 °F 68% 29.98 in 10.0 mi West 8.1 mph - N/A   Scattered Clouds
11:15 PM 48.0 °F 36.9 °F 65% 29.97 in 10.0 mi West 6.9 mph - N/A   Unknown
11:35 PM 47.7 °F 36.5 °F 65% 29.96 in 10.0 mi WNW 4.6 mph - N/A   Unknown
11:50 PM 46.4 °F 35.6 °F 66% 29.96 in 10.0 mi Calm Calm - N/A   Scattered Clouds